This is the latest recevied weather packets stored in our database for station/object W5ADC. If no packets are shown the sender has not sent any weather packets the latest 10 day(s).
| Time | Temp. | Humidity | Pressure | Rain* | Wind** | Luminosity | Snow |
|---|---|---|---|---|---|---|---|
| 1777652155 | 15° C | 74% | 1013.9 hPa | 0 mm | - | 326 W/m² | - |
| 1777651851 | 15° C | 74% | 1013.6 hPa | 0 mm | - | 286 W/m² | - |
| 1777651548 | 15° C | 75% | 1013.8 hPa | 0 mm | - | 243 W/m² | - |
| 1777651245 | 14.44° C | 76% | 1013.9 hPa | 0 mm | - | 198 W/m² | - |
| 1777650941 | 13.89° C | 77% | 1014.2 hPa | 0 mm | - | 205 W/m² | - |
| 1777650639 | 13.89° C | 78% | 1014 hPa | 0 mm | - | 152 W/m² | - |
| 1777650336 | 13.89° C | 79% | 1013.9 hPa | 0 mm | - | 142 W/m² | - |
| 1777650033 | 13.89° C | 79% | 1014.1 hPa | 0 mm | - | 137 W/m² | - |
| 1777649731 | 13.89° C | 80% | 1014.2 hPa | 0 mm | - | 103 W/m² | - |
| 1777649427 | 13.89° C | 79% | 1014.2 hPa | 0 mm | - | 117 W/m² | - |
| 1777649124 | 13.89° C | 80% | 1013.6 hPa | 0 mm | - | 88 W/m² | - |
| 1777648821 | 13.89° C | 80% | 1013.3 hPa | 0 mm | - | 72 W/m² | - |
| 1777648518 | 13.89° C | 79% | 1013.4 hPa | 0 mm | - | 66 W/m² | - |
| 1777648215 | 13.89° C | 80% | 1013.7 hPa | 0 mm | - | 63 W/m² | - |
| 1777647910 | 13.89° C | 80% | 1013.4 hPa | 0 mm | - | 73 W/m² | - |
| 1777647607 | 13.89° C | 81% | 1013.5 hPa | 0 mm | - | 90 W/m² | - |
| 1777647303 | 13.89° C | 80% | 1013.7 hPa | 0 mm | - | 82 W/m² | - |
| 1777647001 | 13.89° C | 81% | 1013.8 hPa | 0 mm | - | 80 W/m² | - |
| 1777646696 | 13.89° C | 80% | 1014 hPa | 0 mm | - | 87 W/m² | - |
| 1777646392 | 13.89° C | 81% | 1013.8 hPa | 0 mm | - | 88 W/m² | - |
| 1777646089 | 13.33° C | 80% | 1013.5 hPa | 0 mm | - | 69 W/m² | - |
| 1777645785 | 13.89° C | 81% | 1013.8 hPa | 0 mm | - | 44 W/m² | - |
| 1777645484 | 13.33° C | 81% | 1013.2 hPa | 0 mm | - | 53 W/m² | - |
| 1777645179 | 13.89° C | 80% | 1013.1 hPa | 0 mm | - | 68 W/m² | - |
| 1777644875 | 13.33° C | 82% | 1013 hPa | 0 mm | - | 85 W/m² | - |
* Rain latest hour (hover to see other rain measurements)
** Current wind speed in m/s (hover to see current wind gust speed)